星链-37119(STARLINK-37119)

导读

STARLINK-37119(NORAD编号68210)是美国SpaceX公司星链(Starlink)星座中的一颗低轨互联网卫星,属于全球卫星互联网组网计划的组成部分。星链计划旨在近地轨道搭建大规模卫星星座,为全球提供全天候高速低成本互联网接入,同时具备潜在军事应用价值。该卫星运行在近地轨道,参与星座组网,依托SpaceX可复用火箭发射技术部署,目前在轨承担通信中继服务,不过大规模星链卫星部署也引发天文观测与轨道安全等领域的相关争议。

基本信息
目录编号:
68210
目录名称:
STARLINK-37119
国际标识:
2026-053D
轨道中心:
EARTH
卫星名称:
星链-37119
卫星全名:
星链-37119(STARLINK-37119)
卫星状态:
在轨 (已飞行133 天)
发射日期:
2026-03-17 UTC
国别 :
美国 (US)
星等 :
--
轨道信息
数据来源 国际轨道数据 AOE轨道数据
星历时间 2026-07-27T12:35:04+0800
21小时前
查看轨道信息
2026-07-25T00:00:00+0800
3天前
查看轨道信息
半长轴 6843.751km 6843.622km
偏心率 0.0001677 0.0001999
轨道倾角 97.285° 97.286°
近地点辐角 99.597° 87.274°
升交点赤经 82.698° 80.210°
平近点角 260.546° 26.453°
近地点 464.466km 464.116km
远地点 466.762km 466.854km
周期 93.908分钟 93.905分钟
每日圈数 15.334215 15.334647
详细信息
固有亮度:
5
最大亮度:
2.5
卫星平台:
Starlink V1.0
覆盖范围:
全球
运营商:
太空探索技术公司
运营商所在国:
美国
制造商(研发单位):
太空探索技术公司
制造商所在国:
美国
使用方式:
暂无
卫星简介
Starlink 计划是 SpaceX 推出的全球卫星互联网项目,通过发射低轨道卫星,为全球尤其是偏远地区提供高速、低延迟的互联网服务。自 2019 年起,Starlink 已部署数千颗卫星,旨在缩小全球数字鸿沟,推动互联网普及。该项目还为军事、航空等行业提供通信支持,带来广泛经济效益。
2D轨道图
3D轨道图
轨道高度分析图
轨道倾角分析图
轨道综合分析图
查看轨道综合分析图